Weather History for Pascagoula, MS

Change the Weather History Date:

Thursday, February 21, 2013

  Actual Average Record
Temperature  
Mean Temperature 54 °F -  
Max Temperature 66 °F 66 °F 77 °F (1961)
Min Temperature 41 °F 48 °F 29 °F (1959)
Degree Days  
Heating Degree Days 12    
Growing Degree Days 4 (Base 50)    
Moisture  
Dew Point 51 °F    
Average Humidity 76    
Maximum Humidity 94    
Minimum Humidity 54    
Precipitation  
Precipitation 0.00 in - - ()
Sea Level Pressure  
Sea Level Pressure 29.97 in    
Wind  
Wind Speed 8 mph (ESE)    
Max Wind Speed 18 mph    
Max Gust Speed 26 mph    
Visibility 10 miles    
Events      
Averages and records for this station are not official NWS values.
T = Trace of Precipitation, MM = Missing Value Source: NWS Daily Summary

Daily Weather History Graph

Daily Weather History Graph

Search for Another Location

Airport:

Trip Planner

Search our weather history database for the weather conditions in past years. The results will help you decide how hot, cold, wet, or windy it might be!

Date:

Astronomy

Feb. 21, 2013 Rise Set
Actual Time 6:28 AM CST 5:47 PM CST
Civil Twilight 6:04 AM CST 6:11 PM CST
Nautical Twilight 5:36 AM CST 6:39 PM CST
Astronomical Twilight 5:08 AM CST 7:07 PM CST
Moon 2:12 PM CST (2/21) 3:22 AM CST (2/21)
Length of Visible Light 12h 07m
Length of Day
11h 18m
Waxing Gibbous, 84% of the Moon is Illuminated
Feb 21
Waxing Gibbous
Feb 25
Full
Mar 4
Last Quarter
Mar 11
New
Mar 19
First Quarter

Hourly Weather History & Observations

Time (CST) Temp. Windchill Dew Point Humidity Pressure Visibility Wind Dir Wind Speed Gust Speed Precip Events Conditions
12:53 AM 43.0 °F 41.3 °F 34.0 °F 71% 30.07 in 10.0 mi ENE 3.5 mph - N/A   Clear
1:53 AM 41.0 °F - 37.0 °F 86% 30.06 in 10.0 mi Calm Calm - N/A   Partly Cloudy
2:53 AM 43.0 °F 41.3 °F 35.1 °F 74% 30.03 in 10.0 mi NNE 3.5 mph - N/A   Partly Cloudy
3:53 AM 44.1 °F 41.5 °F 35.1 °F 71% 30.02 in 10.0 mi NNE 4.6 mph - N/A   Clear
4:53 AM 45.0 °F 42.6 °F 36.0 °F 71% 30.04 in 10.0 mi NNE 4.6 mph - N/A   Overcast
5:53 AM 46.9 °F - 35.1 °F 63% 30.04 in 10.0 mi ENE 4.6 mph - N/A   Overcast
6:40 AM 48.2 °F - 33.8 °F 58% 30.04 in 10.0 mi ENE 4.6 mph - N/A   Overcast
6:53 AM 48.0 °F - 35.1 °F 61% 30.05 in 10.0 mi NE 4.6 mph - N/A   Overcast
7:41 AM 51.8 °F - 37.4 °F 58% 30.05 in 10.0 mi ENE 6.9 mph - N/A   Overcast
7:53 AM 51.1 °F - 37.9 °F 61% 30.06 in 10.0 mi ENE 6.9 mph - N/A   Overcast
8:39 AM 55.4 °F - 39.2 °F 54% 30.06 in 10.0 mi East 8.1 mph - N/A   Overcast
8:53 AM 55.9 °F - 42.1 °F 60% 30.06 in 10.0 mi East 6.9 mph - N/A   Overcast
9:53 AM 60.1 °F - 46.9 °F 62% 30.05 in 10.0 mi ESE 13.8 mph - N/A   Overcast
10:03 AM 60.8 °F - 46.4 °F 59% 30.04 in 10.0 mi ESE 12.7 mph - N/A   Overcast
10:53 AM 63.0 °F - 50.0 °F 63% 30.03 in 10.0 mi ESE 11.5 mph 21.9 mph N/A   Overcast
11:53 AM 63.0 °F - 52.0 °F 67% 30.00 in 10.0 mi ESE 15.0 mph 24.2 mph N/A   Mostly Cloudy
12:37 PM 64.4 °F - 55.4 °F 73% 29.97 in 10.0 mi SE 18.4 mph 26.5 mph N/A   Overcast
12:53 PM 63.0 °F - 55.0 °F 75% 29.97 in 10.0 mi SE 13.8 mph 24.2 mph N/A   Overcast
1:53 PM 64.9 °F - 57.0 °F 75% 29.92 in 10.0 mi ESE 11.5 mph 25.3 mph N/A   Scattered Clouds
2:44 PM 64.4 °F - 59.0 °F 83% 29.90 in 10.0 mi SE 15.0 mph 25.3 mph N/A   Mostly Cloudy
2:53 PM 64.9 °F - 59.0 °F 81% 29.91 in 10.0 mi SE 15.0 mph 24.2 mph N/A   Overcast
3:21 PM 64.4 °F - 60.8 °F 88% 29.90 in 10.0 mi SE 13.8 mph - N/A   Overcast
3:53 PM 64.9 °F - 60.1 °F 84% 29.89 in 10.0 mi SE 11.5 mph 21.9 mph N/A   Overcast
4:53 PM 64.9 °F - 60.1 °F 84% 29.88 in 10.0 mi SE 15.0 mph 24.2 mph N/A   Partly Cloudy
5:53 PM 64.0 °F - 60.1 °F 87% 29.89 in 10.0 mi SE 9.2 mph - N/A   Overcast
6:53 PM 64.0 °F - 60.1 °F 87% 29.90 in 10.0 mi SE 10.4 mph - N/A   Mostly Cloudy
7:53 PM 64.9 °F - 62.1 °F 90% 29.90 in 10.0 mi SSE 12.7 mph 20.7 mph N/A   Overcast
8:19 PM 66.2 °F - 62.6 °F 88% 29.90 in 10.0 mi SSE 13.8 mph 21.9 mph N/A   Overcast
8:53 PM 66.0 °F - 62.1 °F 87% 29.91 in 10.0 mi SSE 13.8 mph 20.7 mph N/A   Overcast
9:00 PM 66.2 °F - 62.6 °F 88% 29.91 in 10.0 mi SSE 9.2 mph - N/A   Overcast
9:37 PM 64.4 °F - 62.6 °F 94% 29.91 in 10.0 mi SSE 11.5 mph 19.6 mph N/A   Overcast
9:53 PM 66.0 °F - 63.0 °F 90% 29.91 in 9.0 mi SSE 12.7 mph 21.9 mph N/A   Overcast
10:53 PM 66.0 °F - 63.0 °F 90% 29.91 in 8.0 mi SSE 9.2 mph - N/A   Overcast
11:23 PM 66.2 °F - 64.4 °F 94% 29.91 in 8.0 mi SSE 11.5 mph - N/A   Overcast
11:53 PM 66.0 °F - 64.0 °F 93% 29.91 in 7.0 mi South 5.8 mph - N/A   Overcast